Regional Weather Roundup
Issued by NWS

Home | Current Version | Previous Version | Graphics & Text | Print | Product List | Glossary On
Versions: 1 2 3 4 5 6 7 8 9 10 11 12 13 14 15 16 17 18 19 20 21 22 23 24 25 26 27 28 29 30 31 32 33 34 35 36 37 38 39 40 41 42 43 44 45 46 47 48 49 50
757
ASUS43 KMKX 081000
RWRWI

WISCONSIN REGIONAL WEATHER ROUNDUP
NATIONAL WEATHER SERVICE MILWAUKEE/SULLIVAN WI
400 AM CST MON FEB 08 2016

NOTE: "FAIR" INDICATES FEW OR NO CLOUDS BELOW 12,000 FEET WITH NO
SIGNIFICANT WEATHER AND/OR OBSTRUCTIONS TO VISIBILITY.

WIZ001-002-006>008-014>016-023>028-081100-
NORTHWEST WISCONSIN

CITY           SKY/WX    TMP DP  RH WIND       PRES   REMARKS
SUPERIOR ARPT  LGT SNOW  14   9  81 NW16G22   29.77R WCI  -2
ASHLAND        LGT SNOW  24  22  91 N8        29.68R FOG     WCI  15
HAYWARD        FLURRIES  17  12  80 VRB6      29.69R WCI   9
SIREN          LGT SNOW  14   9  80 N9G21     29.76R WCI   1
CUMBERLAND     LGT SNOW  14  10  85 NW13      29.69R WCI   0
RICE LAKE      LGT SNOW  16  11  80 NW9       29.71R WCI   5
CHETEK         LGT SNOW  16  12  82 NW6       29.68S WCI   8
LADYSMITH      LGT SNOW  20  16  84 NW15      29.64S WCI   6
EAU CLAIRE     FLURRIES  18  10  71 NW10      29.69R WCI   6
MENOMONIE      FLURRIES  18  11  74 W13       29.71S WCI   5
NEW RICHMOND   LGT SNOW  14   9  80 NW17      29.75R WCI  -2
OSCEOLA        FLURRIES  15  10  79 NW16G23   29.80R WCI  -1
$$

WIZ003>005-009-010-017-018-081100-
NORTH CENTRAL WISCONSIN

CITY           SKY/WX    TMP DP  RH WIND       PRES   REMARKS
MANITOWISH WTR LGT SNOW  26  24  95 N12G18    29.54R WCI  15
ARBOR VITAE    LGT SNOW  27  25  92 CALM      29.53R
WOODRUFF       LGT SNOW  27  25  92 CALM      29.53R
RHINELANDER    CLOUDY    25  22  88 W8        29.53R WCI  16
EAGLE RIVER    MOCLDY    26  25  94 NW6       29.51S WCI  20
LAND O LAKES   CLOUDY    28  27  96 CALM      29.53R
PHILLIPS       LGT SNOW  22  19  91 NW7       29.57R WCI  13
TOMAHAWK       LGT SNOW  23  20  90 W7        29.55S WCI  14
MEDFORD        LGT SNOW  20  18  89 NW9G16    29.57S WCI  10
MERRILL        MIX PCPN  25  21  85 NW7       29.57R WCI  17
$$

WIZ029-030-035-036-043>047-081100-
CENTRAL WISCONSIN

CITY           SKY/WX    TMP DP  RH WIND       PRES   REMARKS
WAUSAU         CLOUDY    26  21  81 NW10      29.55S WCI  16
MOSINEE        CLOUDY    25  23  93 NW10      29.58R WCI  15
MARSHFIELD     LGT SNOW  21  15  78 NW15      29.59R WCI   8
STEVENS POINT  CLOUDY    24  20  86 W8        29.59R WCI  15
WAUPACA        CLOUDY    31  24  75 W9        29.58S WCI  23
WAUTOMA        CLOUDY    28  25  86 W12       29.60R WCI  18
WISC RAPIDS    FLURRIES  23  17  78 NW14      29.62S WCI  11
CAMP DOUGLAS   FLURRIES  21  21 100 W16       29.63S WCI   7
$$

WIZ011>013-019>022-031-037>040-048>050-081100-
NORTHEAST WISCONSIN

CITY           SKY/WX    TMP DP  RH WIND       PRES   REMARKS
ANTIGO         CLOUDY    26  23  89 NW12      29.52S WCI  15
SHAWANO        CLOUDY    35  29  79 W7        29.55S WCI  29
OCONTO         CLOUDY    33  29  85 CALM      29.54S
STURGEON BAY   CLOUDY    34  27  75 SW5       29.57R WCI  30
GREEN BAY      FLURRIES  33  30  88 W6        29.55S WCI  28
MANITOWOC      NOT AVBL
APPLETON       LGT SNOW  32  30  93 W9        29.54S WCI  24
CLINTONVILLE   CLOUDY    32  28  86 W8        29.56S WCI  25
OSHKOSH        FLURRIES  30  25  81 NW8       29.56S WCI  22
$$

WIZ032>034-041-042-053>061-081100-
SOUTHWEST WISCONSIN

CITY           SKY/WX    TMP DP  RH WIND       PRES   REMARKS
LA CROSSE      FLURRIES  19  12  74 NW17      29.71R WCI   4
SPARTA         LGT SNOW  20  17  86 W12       29.68R WCI   9
VIROQUA        CLOUDY    19  16  88 NW15G24   29.64S WCI   5
BOSCOBEL       LGT SNOW  22  18  85 W7        29.69R FOG     WCI  13
PRAIRIE DU CHI MIX PCPN  21  14  75 W17       29.70S WCI   7
PLATTEVILLE    CLOUDY    24  21  88 W14G20    29.65R WCI  12
$$

WIZ056-057-062-063-064-067-068-081100-
SOUTH CENTRAL WISCONSIN

CITY           SKY/WX    TMP DP  RH WIND       PRES   REMARKS
REEDSBURG      FLURRIES  26  22  85 NW13      29.61S WCI  15
BARABOO/DELLS  CLOUDY    27  20  77 NW8G17    29.60S WCI  18
LONE ROCK      FLURRIES  25  19  78 W14       29.65R WCI  13
MINERAL POINT  CLOUDY    27  19  74 W13       29.62S WCI  16
MADISON        CLOUDY    30  24  78 NW13      29.59S WCI  20
MIDDLETON      CLOUDY    31  26  83 NW15      29.60S WCI  20
WATERTOWN      FLURRIES  31  31 100 NW12      29.58R WCI  22
MONROE         CLOUDY    28  21  74 W16G25    29.60S WCI  17
JANESVILLE     FLURRIES  32  28  86 W10       29.59S WCI  24
$$

WIZ051-052-058>065-066-070>072-081100-
SOUTHEAST WISCONSIN

CITY           SKY/WX    TMP DP  RH WIND       PRES   REMARKS
MILWAUKEE      MOCLDY    31  27  85 SW6       29.58F WCI  25
WAUKESHA       LGT SNOW  32  28  86 SW6       29.58S WCI  26
MILWAUKEE/TIMM CLOUDY    32  27  80 SW3       29.58F
RACINE         CLOUDY    31  26  82 SW7       29.60F WCI  24
BURLINGTON     CLOUDY    31  28  89 SW7       29.58F WCI  24
KENOSHA        CLOUDY    32  28  85 SW9       29.59F WCI  24
FOND DU LAC    CLOUDY    32  28  85 NW8       29.57S WCI  25
SHEBOYGAN      CLOUDY    31  27  85 SW5       29.56S WCI  26
WEST BEND      CLOUDY    32  28  86 CALM      29.56F
JUNEAU         LGT SNOW  30  27  88 W5        29.58R WCI  25
$$

LSZ147-162-081100-
LAKE SUPERIOR

STATION/POSITION TIME  TEMP    WIND        PRES    WAVE
                       AIR SEA DIR/SP/G            HT/PER
                 (UTC) (F)     (DEG/KT/KT) (MB)    (FT/S)
DEVILS ISLAND    0900   21     350/ 21/ 24 1006.3R
PORT WING        0940   23     320/ 15/ 19 1006.8R
SAXON HARBOR     0900   26                 1004.4R
$$

LMZ867-665-643>646-081100-
LAKE MICHIGAN

STATION/POSITION TIME  TEMP    WIND        PRES    WAVE
                       AIR SEA DIR/SP/G            HT/PER
                 (UTC) (F)     (DEG/KT/KT) (MB)    (FT/S)
CHAMBERS ISLAND  0900   33     200/  5/  7 1001.0S
NORTHPORT PIER   0900   34        CALM     1000.7S
KEWAUNEE LAKESHO 0900   34     240/  5/ 10 1000.2F
SHEBOYGAN LAKESH 0900   33     240/  8/  9 1001.8F
PORT WASHINGTON  0900   33     260/  6/  8 1002.7F
MILWAUKEE LAKESH 0910   32     240/ 11/ 12   N/A
KENOSHA   LAKESH 0900   32     240/  7/ 10 1003.0F
$$

TC  - TEMPERATURE IN CELSIUS
VSB - VISIBILITY IN STATUTE MILES
WCI - WIND CHILL INDEX
HX  - HEAT INDEX





USA.gov is the U.S. government's official web portal to all federal, state and local government web resources and services.